Bear River@Wheatland

Start Stop
DateFlow
CFS
Gauge
Feet
DateFlow
CFS
Gauge
Feet
10/19/2019 14:4518-0.05
10/19/2019 13:4518-0.05
10/19/2019 12:4518-0.05
10/19/2019 11:4518-0.05
10/19/2019 10:4518-0.05
10/19/2019 09:4518-0.05
10/19/2019 08:4518-0.05
10/19/2019 07:4518-0.05
10/19/2019 06:4518-0.05
10/19/2019 05:4518-0.05
10/19/2019 04:4518-0.05
10/19/2019 03:4518-0.06
10/19/2019 02:4518-0.05
10/19/2019 01:4518-0.05
10/18/2019 23:4518-0.05
10/18/2019 22:4519-0.04
10/18/2019 21:4518-0.05
10/18/2019 18:4518-0.05
10/18/2019 17:4519-0.04
10/18/2019 15:4519-0.04
10/18/2019 14:4520-0.03
10/18/2019 10:4520-0.03
10/18/2019 09:4521-0.02
10/18/2019 08:4520-0.03
10/17/2019 22:4520-0.03
10/17/2019 21:4519-0.04
10/17/2019 20:4520-0.03
10/17/2019 19:4519-0.04
10/17/2019 18:4519-0.04
10/17/2019 17:4520-0.03
10/17/2019 14:4520-0.03
10/17/2019 13:4521-0.02
10/17/2019 12:45 -0.02
10/17/2019 11:4521-0.01
10/17/2019 10:45220
10/17/2019 09:45220
10/17/2019 08:4521-0.02
10/17/2019 07:4520-0.03
10/17/2019 06:4520-0.03
10/17/2019 05:4521-0.02
10/16/2019 19:4521-0.02
10/16/2019 18:4520-0.03
10/16/2019 17:4519-0.04
10/16/2019 16:4518-0.06
10/16/2019 15:4517-0.07
10/16/2019 14:4516-0.08
10/16/2019 13:4517-0.07
10/16/2019 12:4518-0.06
10/16/2019 10:45 -0.06
10/16/2019 09:4518-0.05
10/16/2019 08:4520-0.03
10/16/2019 07:4518-0.05
10/16/2019 06:45 -0.05
10/16/2019 05:45 -0.06
10/16/2019 04:45 -0.06
10/16/2019 03:45 -0.05
10/16/2019 01:4518-0.05
10/16/2019 00:4519-0.04
10/15/2019 20:4519-0.04
10/15/2019 19:4518-0.05
10/15/2019 18:45 -0.05
10/15/2019 17:45 -0.06
10/15/2019 16:45 -0.05
10/15/2019 15:45 -0.06
10/15/2019 14:45 -0.05
10/15/2019 13:45 -0.05
10/15/2019 12:45 -0.06
10/15/2019 08:4518-0.06
10/15/2019 07:4517-0.07
10/15/2019 06:4516-0.08
10/15/2019 05:4515-0.09
10/15/2019 00:45 -0.09
10/14/2019 23:45 -0.1
10/14/2019 22:45 -0.09
10/14/2019 10:45 -0.09
10/14/2019 09:45 -0.1
10/14/2019 08:4515-0.1
10/14/2019 07:4514-0.11
10/14/2019 06:4514-0.11
10/14/2019 05:4515-0.1
10/14/2019 04:4514-0.11
10/14/2019 01:4514-0.11
10/14/2019 00:4515-0.1
10/13/2019 22:4515-0.1
10/13/2019 21:4514-0.11
10/13/2019 14:4514-0.11
10/13/2019 13:4515-0.1
10/13/2019 12:4514-0.11
10/13/2019 08:45 -0.11
10/13/2019 07:45 -0.12
10/13/2019 01:4514-0.12
10/13/2019 00:45 -0.11
10/12/2019 23:45 -0.11
10/12/2019 22:45 -0.12
10/12/2019 14:45 -0.12
10/12/2019 13:45 -0.11
10/12/2019 10:4514-0.11
10/12/2019 09:4515-0.1
10/12/2019 08:4515-0.09
10/12/2019 07:4516-0.08
10/12/2019 06:4517-0.07
10/12/2019 03:4517-0.07
10/12/2019 02:4518-0.06
10/11/2019 10:4518-0.06
10/11/2019 09:4517-0.07
10/10/2019 23:4517-0.07
10/10/2019 22:4516-0.08
10/10/2019 21:4517-0.07
10/10/2019 20:4516-0.08
10/10/2019 19:4517-0.07
10/10/2019 14:4517-0.07
10/10/2019 13:4518-0.06
10/10/2019 12:4518-0.06
10/10/2019 11:4517-0.07
10/10/2019 10:4515-0.1
10/10/2019 09:4515-0.1
10/10/2019 08:4514-0.11
10/10/2019 05:45 -0.11
10/10/2019 04:45 -0.12
10/10/2019 03:45 -0.12
10/10/2019 02:45 -0.11
10/10/2019 01:45 -0.12
10/09/2019 23:4514-0.12
10/09/2019 22:4513-0.13
10/09/2019 21:4513-0.13
10/09/2019 20:4514-0.11
10/09/2019 17:4514-0.11
10/09/2019 16:4515-0.1
10/09/2019 13:4515-0.1
10/09/2019 12:4516-0.08
10/09/2019 11:4518-0.06
10/09/2019 10:4519-0.04
10/09/2019 09:4521-0.02
10/09/2019 08:4521-0.02
10/09/2019 07:4520-0.03
10/09/2019 04:4520-0.03
10/09/2019 03:4519-0.04
10/09/2019 02:4518-0.06
10/09/2019 00:4518-0.06
10/08/2019 23:4517-0.07
10/08/2019 16:4517-0.07
10/08/2019 15:4515-0.09
10/08/2019 12:4515-0.09
10/08/2019 11:4516-0.08
10/08/2019 08:4516-0.08
10/08/2019 07:4515-0.09
10/08/2019 04:4515-0.09
10/08/2019 03:4516-0.08
10/07/2019 20:4516-0.08
10/07/2019 19:4515-0.09
10/07/2019 18:4516-0.08
10/07/2019 17:4515-0.09
10/07/2019 16:4517-0.07
10/07/2019 15:4518-0.06
10/07/2019 14:4517-0.07
10/07/2019 13:4515-0.09
10/07/2019 12:4515-0.1
10/07/2019 11:4514-0.12
10/07/2019 10:4513-0.13
10/06/2019 22:4513-0.13
10/06/2019 21:4512-0.14
10/06/2019 20:4513-0.13
10/06/2019 15:4513-0.13
10/06/2019 14:4514-0.12
10/06/2019 10:45 -0.12
10/06/2019 09:45 -0.11
10/06/2019 07:45 -0.11
10/06/2019 06:45 -0.12
10/06/2019 05:4514-0.11
10/06/2019 04:4515-0.1
10/06/2019 03:4514-0.11
10/06/2019 02:4514-0.11
10/06/2019 01:4515-0.1
10/05/2019 18:4515-0.1
10/05/2019 17:4514-0.11
10/05/2019 16:45 -0.11
10/05/2019 15:45 -0.12
10/05/2019 09:4514-0.12
10/05/2019 08:4513-0.13
10/05/2019 07:4513-0.13
10/05/2019 06:4512-0.14
10/05/2019 05:4513-0.13
10/05/2019 03:4513-0.13
10/05/2019 02:4514-0.12
10/05/2019 01:4513-0.13
10/04/2019 17:4513-0.13
10/04/2019 16:4512-0.14
10/04/2019 15:45 -0.14
10/04/2019 14:4512-0.15
10/04/2019 13:4511-0.16
10/04/2019 12:4510-0.18
10/04/2019 10:4510-0.18
10/04/2019 09:459-0.19
10/04/2019 08:45 -0.19
10/04/2019 07:459-0.2
10/04/2019 06:458-0.21
10/04/2019 05:459-0.2
10/04/2019 04:45 -0.19
10/04/2019 03:459-0.2
10/04/2019 02:4510-0.18
10/03/2019 20:45 -0.18
10/03/2019 19:45 -0.17
10/03/2019 18:45 -0.18
10/03/2019 16:45 -0.18
10/03/2019 15:45 -0.17
10/03/2019 14:45 -0.18
10/03/2019 13:45 -0.18
10/03/2019 12:45 -0.17
10/03/2019 11:45 -0.18
10/03/2019 09:4510-0.18
10/03/2019 08:459-0.19
10/03/2019 07:459-0.2
10/03/2019 06:458-0.22
10/03/2019 05:459-0.19
10/03/2019 04:4510-0.18
10/03/2019 02:45 -0.18
10/03/2019 01:45 -0.17
10/03/2019 00:45 -0.17
10/02/2019 23:45 -0.18
10/02/2019 19:45 -0.18
10/02/2019 18:45 -0.17
10/02/2019 17:45 -0.18
10/02/2019 16:45 -0.17
10/02/2019 15:45 -0.18
10/02/2019 14:45 -0.18
10/02/2019 13:45 -0.17
10/02/2019 12:45 -0.18
10/02/2019 07:4510-0.18
10/02/2019 06:459-0.19
10/02/2019 05:4510-0.18
10/02/2019 01:4510 
10/01/2019 20:45 -0.18
10/01/2019 19:45 -0.17
10/01/2019 10:45 -0.17
10/01/2019 09:45 -0.18
10/01/2019 04:45 -0.18
10/01/2019 03:45 -0.17
10/01/2019 01:4510-0.17
10/01/2019 00:45 -0.18
09/30/2019 23:45 -0.17
09/30/2019 10:45 -0.17
09/30/2019 09:45 -0.18
09/30/2019 07:4510-0.18
09/30/2019 06:459-0.19
09/30/2019 05:459-0.19
09/30/2019 04:4510-0.18
09/30/2019 03:45 -0.17
09/30/2019 02:4510-0.17
09/30/2019 01:4511-0.16
09/30/2019 00:4511-0.16
09/29/2019 23:4510-0.17
09/29/2019 08:45 -0.17
09/29/2019 07:45 -0.18
09/29/2019 06:4510-0.18
09/29/2019 05:459-0.19
09/29/2019 04:4510-0.18
09/29/2019 03:4510-0.17
09/29/2019 02:4511-0.16
09/29/2019 01:4511-0.16
09/29/2019 00:4512-0.15
09/28/2019 23:45 -0.15
09/28/2019 22:45 -0.14
09/28/2019 20:45 -0.14
09/28/2019 19:4512-0.15
09/28/2019 18:4511-0.16
09/28/2019 12:4511-0.16
09/28/2019 11:4510-0.17
09/28/2019 08:45 -0.17
09/28/2019 07:45 -0.18
09/28/2019 06:45 -0.17
09/28/2019 05:45 -0.18
09/28/2019 04:45 -0.17
09/28/2019 03:4510-0.17
09/28/2019 02:4511-0.16
09/28/2019 01:4510-0.17
09/28/2019 00:4511-0.16
09/27/2019 23:4511-0.16
09/27/2019 22:4510-0.17
09/27/2019 21:4511-0.16
09/27/2019 15:4511-0.16
09/27/2019 14:4510-0.17
09/27/2019 13:4511-0.16
09/27/2019 12:4511-0.16
09/27/2019 11:4510-0.17
09/27/2019 06:45 -0.17
09/27/2019 05:45 -0.18
09/27/2019 04:45 -0.18
09/27/2019 03:45 -0.17
09/27/2019 01:45 -0.17
09/27/2019 00:45 -0.18
09/26/2019 23:45 -0.17
09/26/2019 19:4510-0.17
09/26/2019 18:4511-0.16
09/26/2019 10:4511-0.16
09/26/2019 09:4510-0.17
09/26/2019 06:4510-0.17
09/26/2019 05:4511-0.16
09/26/2019 04:4511-0.16
09/26/2019 03:4510-0.17
09/26/2019 02:4511-0.16
09/25/2019 22:4511-0.16
09/25/2019 21:4510-0.17
09/25/2019 20:4510-0.17
09/25/2019 19:4511-0.16
09/25/2019 18:4510-0.17
09/25/2019 17:4511-0.16
09/25/2019 06:4511-0.16
09/25/2019 05:4510-0.17
09/25/2019 04:4511-0.16
09/25/2019 03:4511-0.16
09/25/2019 02:4510-0.17
09/25/2019 01:4511-0.16
09/24/2019 20:4511-0.16
09/24/2019 19:4510-0.17
09/24/2019 18:4511-0.16
09/24/2019 16:4511-0.16
09/24/2019 15:4512-0.15
09/24/2019 14:4512-0.15
09/24/2019 13:4511-0.16
09/24/2019 09:4511-0.16
09/24/2019 08:4510-0.17
09/24/2019 05:4510-0.17
09/24/2019 04:4511-0.16
09/23/2019 23:4511-0.16
09/23/2019 22:4510-0.17
09/23/2019 21:4511-0.16
09/23/2019 17:4511-0.16
09/23/2019 16:4512-0.15
09/23/2019 13:4512-0.15
09/23/2019 12:4511-0.16
09/23/2019 11:4512-0.15
09/23/2019 10:4512-0.15
09/23/2019 09:4511-0.16
09/22/2019 19:4511-0.16
09/22/2019 18:4512-0.15
09/22/2019 10:4512-0.15
09/22/2019 09:4511-0.16
09/22/2019 08:4510-0.17
09/22/2019 06:4510-0.17
09/22/2019 05:4511-0.16
09/21/2019 20:4511-0.16
09/21/2019 19:4512-0.15
09/21/2019 10:4512-0.15
09/21/2019 09:4511-0.16
09/21/2019 03:4511-0.16
09/21/2019 02:4512-0.15
09/21/2019 00:4512-0.15
09/20/2019 23:4511-0.16
09/20/2019 22:4512-0.15
09/20/2019 16:45 -0.15
09/20/2019 15:45 -0.14
09/20/2019 14:45 -0.14
09/20/2019 13:45 -0.15
09/20/2019 12:45 -0.14
09/20/2019 11:45 -0.14
09/20/2019 10:45 -0.15
09/20/2019 07:4512-0.15
09/20/2019 06:4511-0.16
09/20/2019 05:4511-0.16
09/20/2019 04:4512-0.15
09/19/2019 20:45 -0.15
09/19/2019 19:45 -0.14
09/19/2019 18:4512-0.14
09/19/2019 17:4513-0.13
09/19/2019 16:4514-0.12
09/19/2019 15:4514-0.12

Start Stop